Location: ????
(30.1475°N, 31.1342°E)
Time: 07:38:58
(UTC+00:00)

IRS-P3 - Pass Details

Date: 27 September 2022
Orbit: 813 x 819 km, 99.0° (Epoch: 28 November)

Event Time Altitude Azimuth Distance (km) Brightness Sun altitude
Rises 01:46:58 0° 11° (N) 3,348 7.6 -26.4°
Reaches altitude 10° 01:49:19 10° 10° (N) 2,412 6.8 -25.9°
Maximum altitude 01:54:39 77° 285° (WNW) 839 4.0 -24.8°
Enters shadow 01:55:37 60° 218° (SW) 932 4.1 -24.6°
